Dewpoint
74 70 70 70 70 69 69 71 56 51 52 47 48 46 47 50 50 50 50 52 52 55 55 56 55 55 58 57 59 60 60 60 59 58 56 66 71 72 72 72 72 71 70 72 73 74 74 74 75 75 75 76 75 75 75 75 76 75 76 76 76 75 76 75 76 76 76 76 76 77 77 77 77 77 77 77 77 76 77 77 77 77 76 76 75 75 76 76 76 75 75 75 75 75 75 75 75
68 69 68 69 69 69 63 64 57 45 45 43 47 48 49 50 50 49 51 52 51 53 56 56 56 57 56 56 58 58 59 60 61 63 65 68 70 71 72 72 70 70 70 71 72 73 73 75 75 75 76 75 75 75 74 74 75 75 75 75 76 76 75 75 75 75 75 76 76 76 77 77 77 77 77 77 77 77 77 77 77 76 76 76 76 75 76 75 75 75 75 75 75 75 75 75 75
69 69 68 68 69 68 63 62 44 41 41 40 43 47 51 49 48 50 52 53 54 55 56 56 56 55 54 55 56 58 57 62 62 64 66 69 68 70 71 71 72 72 71 71 72 73 73 74 75 75 76 75 75 74 74 74 74 75 75 75 75 75 75 75 75 75 76 76 76 76 76 77 77 76 77 77 77 77 77 77 77 76 76 75 75 75 75 75 74 74 74 74 74 74 75 75 75
68 68 67 68 65 66 56 46 44 38 40 40 41 47 49 49 50 53 54 55 55 56 55 54 55 57 56 54 55 57 59 62 63 63 65 67 68 71 71 72 73 71 71 72 72 73 74 74 75 75 76 76 76 75 75 74 75 74 75 75 75 75 76 74 74 75 76 76 76 76 76 76 76 76 76 76 76 76 76 77 76 76 76 75 75 75 74 75 74 75 74 74 74 74 74 74 74
67 68 68 67 65 54 54 44 37 37 38 39 40 46 49 52 53 54 55 56 55 55 54 55 55 60 59 58 58 58 60 63 62 64 66 68 69 71 72 72 72 71 71 72 72 73 74 75 75 75 76 76 76 75 75 75 74 74 74 74 74 75 74 74 75 75 75 75 76 76 76 76 76 76 76 77 77 76 76 76 76 76 75 75 75 75 75 74 75 75 74 74 74 73 74 74 74
67 68 70 67 62 59 58 40 37 36 43 43 40 44 49 52 54 54 56 56 56 56 55 54 52 55 56 59 59 59 62 60 63 65 67 67 68 70 71 73 71 70 71 74 73 73 74 75 75 76 75 75 75 76 75 75 75 74 74 74 75 75 75 75 75 75 75 76 76 76 76 76 76 77 76 76 76 76 76 76 75 75 75 75 75 75 75 74 74 74 74 73 73 74 73 73 74
66 67 66 65 64 61 40 35 35 35 40 44 42 46 49 52 54 55 55 56 56 56 56 55 55 56 56 58 60 63 65 63 63 64 67 68 69 70 70 71 71 72 72 73 74 73 74 75 75 76 76 76 76 76 75 75 75 75 74 75 75 75 75 75 75 75 75 76 75 76 76 76 76 76 76 77 76 76 76 76 75 75 75 74 74 75 74 74 74 73 73 73 74 74 74 74 73
68 64 60 59 44 49 36 34 36 38 41 43 46 47 51 52 54 54 54 54 53 53 56 55 53 55 56 59 59 65 64 65 65 66 68 69 69 70 70 71 71 71 71 73 74 74 77 75 76 76 76 76 76 76 75 76 75 75 75 75 75 74 74 75 76 76 76 76 76 76 76 76 76 76 76 76 76 76 76 75 75 75 74 74 74 74 74 74 73 73 73 73 73 73 74 74 73
64 62 58 57 44 38 33 34 37 42 43 45 47 53 55 53 54 54 53 54 54 55 55 54 52 51 55 58 58 63 65 66 66 68 69 69 69 70 69 69 69 71 71 71 72 74 75 76 76 76 76 76 76 75 75 75 75 75 75 75 75 75 75 76 76 76 76 76 76 76 76 76 76 76 76 76 76 76 75 75 75 74 74 74 74 73 74 73 73 73 73 73 73 73 73 73 73
62 59 55 50 40 37 33 34 35 39 41 46 48 51 52 53 53 54 54 53 54 54 54 55 53 54 56 57 59 62 64 66 67 67 69 69 69 69 69 69 70 69 70 71 73 72 74 77 76 76 76 76 76 76 76 76 76 75 75 75 75 75 75 75 75 75 75 76 76 76 76 76 76 76 76 76 76 75 75 75 74 74 74 73 73 73 73 73 72 72 73 73 73 73 74 74 74
59 57 54 50 38 35 35 34 36 40 43 46 48 52 53 53 53 53 54 54 54 55 56 55 54 55 56 58 62 65 66 65 66 67 68 69 69 68 68 70 68 69 69 70 72 74 74 75 77 76 76 76 76 76 76 75 76 75 76 75 75 75 75 75 75 75 75 75 75 75 75 75 76 76 76 75 75 74 74 74 74 74 73 73 73 73 72 72 73 72 73 73 74 74 74 75 74
56 52 52 43 37 36 35 34 34 39 44 46 45 51 52 52 53 52 53 53 54 54 54 54 53 55 55 57 60 63 65 65 65 67 69 69 68 68 69 68 68 68 69 70 72 74 75 76 77 76 76 76 76 76 76 76 75 76 76 75 75 75 75 75 75 75 75 75 75 75 75 75 75 75 75 74 74 74 74 74 73 73 72 73 73 72 72 73 74 75 75 75 75 75 75 75 75
56 46 42 39 36 35 36 36 36 39 40 42 43 50 51 52 51 51 52 53 54 53 53 56 55 55 54 56 60 63 63 64 66 67 68 68 69 69 69 68 68 69 70 72 73 74 76 75 75 75 76 75 76 77 77 76 76 76 76 76 76 76 75 75 75 75 75 75 75 75 75 75 74 74 74 74 73 73 73 73 73 73 73 73 73 73 74 74 75 75 75 75 75 75 75 75 75
55 48 43 41 38 35 36 38 39 36 36 42 48 50 51 51 51 51 51 51 52 51 54 57 55 53 58 59 60 60 62 65 66 67 68 69 69 68 68 68 68 70 71 72 74 75 74 75 75 76 77 77 76 76 76 76 76 76 76 76 75 75 75 75 75 75 75 75 75 75 75 75 74 74 74 74 74 75 75 75 74 74 74 73 74 74 74 75 74 75 75 75 75 75 75 75 75
53 51 44 42 37 36 37 37 38 36 36 43 49 50 51 53 53 53 51 49 53 57 56 56 55 54 55 56 58 58 62 65 66 68 68 69 69 69 69 69 70 71 71 71 73 75 74 74 74 77 77 77 77 74 76 76 76 76 76 76 76 75 75 75 75 75 75 75 75 75 75 74 74 74 75 74 74 74 75 75 74 74 73 73 74 74 74 75 75 75 75 75 75 75 75 75 74
54 50 44 40 36 34 36 38 39 37 38 44 49 50 51 52 53 52 52 53 56 57 54 54 57 52 53 53 58 59 63 64 66 68 69 69 70 71 70 70 70 71 72 72 72 74 75 75 76 75 76 75 74 74 75 76 76 76 76 76 76 75 75 75 75 75 75 75 74 75 74 75 75 75 75 74 75 74 75 74 73 73 73 73 73 73 73 74 74 75 75 75 75 75 75 75 75
54 50 44 39 35 35 35 37 38 36 40 47 50 50 50 50 53 55 57 58 54 54 54 55 54 57 54 57 60 61 63 65 67 68 69 69 69 68 69 70 69 70 70 72 73 74 74 76 75 75 76 76 74 74 75 75 76 76 76 76 76 75 75 75 75 75 75 75 75 75 75 75 75 75 74 73 73 73 75 75 74 74 73 73 73 73 73 73 74 75 75 75 75 75 75 76 76
52 48 42 38 35 35 36 36 38 39 41 47 49 50 49 51 51 56 55 54 53 54 55 54 58 56 57 60 62 63 63 64 64 67 67 68 68 66 66 67 68 68 69 70 71 72 74 75 76 76 75 75 75 75 74 75 76 76 76 76 76 76 76 75 76 75 75 76 74 75 76 74 73 73 73 71 72 73 74 75 74 73 73 74 74 74 75 75 75 76 75 74 74 75 75 73 72
48 45 42 37 35 35 37 37 39 39 40 47 48 50 49 50 51 53 51 51 52 53 54 55 55 58 60 62 64 63 63 64 64 64 64 65 66 67 66 67 67 68 68 69 70 71 72 73 74 74 74 74 75 75 74 74 75 76 76 75 75 75 75 76 76 75 75 75 75 75 74 72 72 73 73 74 74 73 72 73 75 75 75 75 75 76 76 76 75 75 73 73 74 74 75 71 70
45 42 41 37 37 37 39 38 39 39 42 46 48 49 50 51 51 52 49 50 50 50 52 54 56 58 60 63 63 63 63 63 64 64 62 64 64 64 66 67 67 68 68 68 69 71 71 71 73 73 74 75 74 74 74 74 75 77 76 75 74 75 75 76 77 75 75 75 74 74 71 73 73 73 72 73 73 73 74 77 76 75 75 76 76 76 76 76 75 74 74 73 75 72 71 69 68
42 41 38 36 38 37 37 39 40 40 43 45 47 50 49 52 52 50 50 49 48 47 50 52 54 57 60 62 63 63 63 62 63 62 62 64 64 63 64 66 66 68 69 68 70 71 71 72 72 73 74 75 74 73 73 72 74 73 73 73 73 72 74 76 75 75 74 74 74 72 70 71 71 71 72 73 72 73 72 73 73 74 75 76 77 75 74 74 74 72 73 74 72 71 70 70 71
38 40 39 38 39 38 38 39 39 40 43 46 48 49 48 52 53 49 50 48 42 44 49 49 54 57 59 60 62 63 62 63 62 63 62 63 63 65 64 65 66 67 69 69 69 71 71 71 72 72 74 74 74 73 72 72 74 73 72 72 72 72 72 74 72 73 72 73 71 70 70 71 71 71 72 71 72 72 72 71 72 73 74 74 75 73 71 73 72 70 72 71 70 71 71 72 71
32 34 36 39 39 38 37 38 38 40 42 45 48 48 50 51 51 50 50 51 45 45 48 49 56 58 59 60 61 62 62 63 62 62 63 63 64 64 64 65 66 66 68 69 69 71 71 72 72 72 72 74 74 74 73 72 72 72 73 72 71 70 71 72 70 70 71 73 72 72 70 70 70 69 71 71 72 73 73 72 72 73 74 72 74 72 72 73 71 71 70 71 71 70 71 72 72
33 31 35 36 38 38 37 36 38 40 42 45 47 49 49 49 47 49 48 48 51 51 50 53 56 58 59 60 61 61 62 63 63 63 63 63 64 63 64 64 65 66 67 68 69 70 71 71 73 73 72 73 74 74 73 72 72 72 72 72 72 70 70 70 71 71 72 72 74 73 72 71 70 70 72 73 73 74 74 74 74 72 72 71 73 74 72 71 71 70 72 72 72 72 70 72 71
32 33 34 35 36 36 34 31 36 40 42 45 48 48 48 48 46 49 49 48 52 52 54 56 57 58 59 60 60 61 63 62 62 63 64 65 65 65 65 65 66 66 67 67 68 69 70 71 72 72 72 74 72 72 72 71 71 72 71 71 72 72 72 71 71 73 72 72 73 74 74 72 71 72 72 73 73 74 74 74 73 71 72 72 73 71 73 73 73 71 72 72 72 73 72 72 71
31 32 34 34 33 32 29 29 34 39 42 46 48 48 48 48 50 48 48 48 53 54 57 57 57 58 58 60 60 62 64 62 62 63 63 64 64 65 66 66 66 66 67 67 68 69 69 71 71 71 72 73 72 71 72 71 72 71 73 73 73 73 72 72 73 71 72 73 72 74 73 73 72 72 72 73 73 74 74 74 73 71 72 72 72 72 72 73 72 72 72 73 73 73 73 72 72
31 32 33 31 30 29 32 31 34 39 41 47 47 46 47 49 49 45 48 52 55 56 56 57 57 57 58 59 59 62 63 62 63 63 63 64 65 65 65 66 66 68 69 68 68 68 69 70 70 72 72 73 73 71 72 73 73 72 72 72 73 74 73 73 73 72 71 72 73 76 76 75 75 73 73 74 73 73 74 74 73 73 71 71 76 73 73 74 74 74 74 73 73 74 72 72 72
29 28 29 30 31 33 35 36 36 39 44 49 45 44 49 52 49 42 48 54 56 56 56 57 57 58 58 59 60 65 64 64 64 63 63 64 65 65 66 65 66 66 67 69 68 70 68 69 69 71 71 73 73 72 73 73 73 72 73 73 73 74 75 74 73 72 72 72 74 75 76 76 76 75 76 76 75 74 73 73 73 72 72 72 73 73 73 74 75 74 75 75 75 74 73 70 70
27 29 30 33 36 34 37 36 37 43 45 48 44 50 50 51 47 46 51 55 55 56 57 57 56 58 59 60 60 65 64 64 64 63 63 64 65 64 64 64 64 65 65 68 69 70 68 69 69 70 71 73 73 72 72 73 74 73 74 74 74 74 74 74 72 72 73 74 75 75 75 76 77 76 76 77 75 74 74 75 73 73 74 75 75 75 76 76 75 74 74 75 74 73 69 68 68
28 31 31 32 34 33 38 38 42 43 48 47 48 46 42 47 47 47 54 54 54 55 57 56 56 58 59 60 60 64 64 65 64 64 64 64 65 63 64 63 64 64 66 67 69 69 68 68 68 69 70 71 73 71 72 72 74 74 74 73 74 74 72 71 72 73 73 73 75 75 76 77 76 76 77 77 76 75 76 76 75 74 75 75 76 76 75 74 73 73 73 72 69 69 67 67 65
27 30 32 31 28 30 38 40 43 41 49 48 47 37 34 37 46 50 55 54 53 54 56 56 56 57 59 59 61 64 64 65 64 65 64 64 65 64 63 64 64 65 65 67 68 70 71 69 70 69 72 72 72 72 72 73 74 74 73 73 74 75 73 72 70 72 73 73 74 73 76 77 79 78 78 77 76 76 74 74 75 75 76 76 74 75 75 73 73 72 69 69 68 65 65 67 66
27 32 31 29 28 32 41 42 43 37 50 50 45 39 33 35 45 54 55 54 53 54 55 56 56 56 58 60 61 62 63 65 65 64 63 64 64 63 64 65 65 65 67 69 69 70 71 71 72 70 72 73 73 73 73 73 73 75 74 74 74 75 73 72 71 71 72 72 73 74 77 78 78 79 78 78 77 75 72 73 75 76 76 75 75 75 75 73 73 71 69 67 66 66 66 65 66
29 31 28 26 27 33 41 42 43 42 49 48 45 36 35 36 47 54 54 54 53 53 55 56 57 57 57 59 60 61 62 64 65 63 64 65 65 65 65 66 66 66 67 69 70 72 72 71 73 72 70 73 73 73 74 73 74 75 75 75 74 75 72 72 71 73 72 73 73 73 76 78 78 78 78 78 77 77 74 74 74 75 75 74 75 74 72 72 70 65 68 68 68 69 66 65 66
29 31 29 27 26 28 31 42 44 43 47 45 45 41 35 39 49 54 54 54 54 53 54 56 57 58 59 59 58 59 62 63 64 64 64 65 65 66 65 68 67 68 68 70 72 72 72 71 73 72 71 71 73 74 75 74 74 75 75 74 75 73 72 71 72 73 74 72 74 75 77 77 78 78 77 77 76 76 75 74 74 75 75 75 75 73 71 69 68 67 67 69 68 69 66 67 66
27 30 28 27 29 26 27 38 42 42 46 42 44 42 38 45 51 53 54 54 53 53 54 55 56 57 59 60 59 59 60 62 63 64 63 66 65 65 65 67 67 69 69 71 72 73 73 72 73 74 72 72 72 74 75 75 74 75 75 75 74 74 74 73 73 73 73 74 74 76 78 77 77 77 77 77 77 75 75 74 74 75 75 75 73 70 68 68 68 69 68 69 69 69 68 68 68
27 29 28 26 26 26 28 33 40 43 45 41 40 42 40 39 51 53 53 54 54 55 55 55 56 57 59 60 60 59 60 60 63 64 63 65 65 66 66 67 68 69 70 71 73 73 74 73 73 73 74 72 73 74 74 73 72 73 72 73 73 73 74 74 75 73 74 73 75 76 78 78 77 77 77 76 76 76 74 74 75 75 72 71 70 68 67 68 69 69 69 69 69 68 68 68 68
26 28 29 26 24 26 28 30 37 43 41 38 38 41 40 40 42 52 54 55 56 55 55 56 56 57 58 59 59 60 61 60 61 63 64 64 65 66 67 67 68 69 70 71 72 73 74 73 73 73 74 74 73 73 72 71 70 72 73 72 71 72 73 73 73 73 72 73 75 76 77 76 77 76 76 76 76 75 75 74 71 70 70 70 70 69 69 69 70 70 69 69 69 67 66 67 67
24 25 26 25 25 24 28 32 41 43 39 37 40 38 40 42 42 49 55 54 54 54 55 57 57 57 58 59 59 60 61 61 61 63 63 64 65 65 66 67 68 68 70 71 72 73 74 73 73 73 73 74 73 73 72 72 73 72 72 72 70 70 71 70 70 71 71 72 75 77 77 77 77 76 76 76 76 76 74 70 71 70 70 69 70 70 69 69 69 69 68 68 69 66 66 65 65
23 23 24 24 24 26 32 38 43 44 40 36 38 41 40 41 43 49 53 54 54 54 55 56 58 58 59 59 60 60 61 62 61 62 63 62 63 64 66 67 67 68 69 71 73 73 74 74 74 74 73 73 74 74 73 73 73 74 72 72 71 68 68 69 69 70 72 72 75 77 78 77 77 77 77 75 74 73 72 70 71 70 70 69 69 69 68 66 66 68 69 66 65 67 65 67 67
22 23 24 24 24 25 31 38 41 43 41 36 38 37 40 44 46 45 50 53 55 55 54 55 57 59 59 58 60 60 60 62 62 63 62 61 63 64 66 67 68 68 69 70 72 73 73 74 74 75 74 74 74 74 74 74 75 76 76 74 72 70 69 70 72 72 74 75 75 77 77 77 77 75 75 74 73 72 72 71 70 70 70 70 69 67 66 66 69 69 68 67 67 64 63 63 67
20 23 23 23 23 26 30 33 39 41 43 40 39 40 41 42 40 41 48 52 52 54 55 55 57 58 60 60 60 61 61 63 63 63 62 62 63 63 65 67 67 68 68 69 71 72 73 74 75 76 75 75 75 75 76 75 75 76 76 75 74 73 72 71 72 71 72 73 72 74 74 75 75 74 73 73 72 72 72 71 71 70 70 70 69 67 65 67 68 67 67 67 67 63 60 62 64
19 22 23 23 23 24 31 29 36 37 38 41 38 37 38 39 39 39 42 48 52 53 56 57 58 59 60 60 60 61 61 63 65 63 62 62 62 64 65 66 67 67 68 69 70 71 73 74 75 76 75 75 75 76 77 76 75 74 73 72 71 71 70 70 70 70 70 71 69 69 73 73 73 73 73 73 72 71 72 72 72 70 70 70 69 66 67 68 68 68 67 67 65 66 66 62 61
18 22 24 23 22 27 29 31 34 34 38 37 39 35 35 34 35 38 42 44 51 55 55 56 59 60 59 60 60 60 60 61 64 64 63 61 63 63 65 66 67 66 68 69 70 71 73 74 76 76 76 76 76 76 77 77 75 74 73 72 71 71 70 71 72 71 70 69 71 71 71 73 74 73 72 73 71 72 72 72 71 71 70 69 67 67 67 66 66 67 67 66 65 66 66 63 63
17 21 23 23 21 23 26 31 31 32 32 31 36 35 33 31 31 37 41 43 47 54 56 56 56 60 58 60 59 61 60 61 63 64 64 63 63 64 65 67 67 66 67 68 69 71 73 75 76 76 76 76 77 77 77 77 76 75 74 73 72 71 71 71 72 73 73 72 70 71 71 71 73 73 72 73 72 72 71 71 71 70 68 67 66 65 65 64 66 67 67 67 67 66 66 65 64
17 20 22 22 22 22 21 24 27 28 27 34 35 35 35 34 35 46 44 44 48 52 54 56 57 57 60 60 58 59 60 61 62 63 64 64 64 64 65 67 67 67 66 68 70 71 73 74 76 76 76 77 77 77 78 78 77 75 74 73 72 72 72 72 71 72 71 72 72 72 72 72 73 73 73 72 72 71 71 71 71 70 68 66 66 65 65 66 67 68 68 67 67 67 67 67 66
15 19 22 22 22 20 20 22 25 28 30 31 34 32 33 32 34 38 45 44 44 47 50 53 57 57 58 59 59 58 61 63 62 62 63 64 64 64 65 66 67 66 66 69 70 71 72 74 75 76 76 76 77 78 77 78 77 76 75 74 73 73 73 72 71 71 72 73 73 73 73 73 72 72 73 73 72 72 71 70 69 68 66 63 65 65 66 67 68 68 68 68 68 67 67 67 66
12 18 19 20 20 22 23 24 28 29 28 34 30 30 32 28 31 33 43 45 42 37 43 50 54 57 58 59 59 58 59 62 62 62 63 64 65 65 66 66 68 67 67 68 69 71 72 73 75 76 76 76 77 77 77 77 77 76 76 75 74 73 74 73 73 73 73 73 73 72 72 72 72 71 70 72 72 71 71 70 67 66 64 65 67 66 66 64 64 65 67 68 67 67 66 66 66
10 16 18 23 27 27 30 28 33 30 29 36 29 25 32 30 29 30 36 43 38 35 35 37 45 53 58 59 58 58 59 61 62 62 62 64 65 65 66 67 68 69 68 68 69 71 72 73 74 76 76 76 77 77 77 76 76 76 76 76 75 74 74 73 73 74 73 73 73 72 72 72 72 71 71 69 71 68 70 68 68 65 65 66 67 67 65 65 64 64 67 67 67 67 67 66 66
8 14 20 22 27 29 27 29 28 27 29 30 26 25 29 33 33 31 29 33 36 37 33 33 32 46 55 58 59 59 59 60 62 63 63 63 64 65 65 67 69 70 69 70 69 68 71 73 74 75 76 77 76 76 77 77 76 76 76 76 76 75 75 74 75 74 74 73 73 72 72 71 71 71 70 69 68 68 69 69 68 65 66 67 68 67 66 67 66 65 67 66 65 66 66 66 64
7 13 19 24 24 26 25 25 28 28 26 25 26 28 29 33 33 36 32 32 32 34 36 34 39 42 51 57 60 58 59 59 61 62 63 64 65 65 66 67 69 70 70 69 70 69 71 72 74 75 75 76 77 76 76 77 77 77 77 76 76 76 76 75 75 73 73 73 73 73 71 70 70 71 69 69 68 68 68 69 68 68 68 68 68 68 68 68 68 66 66 66 65 66 66 66 66
13 10 12 22 27 24 27 25 25 25 25 24 27 29 32 28 30 31 33 37 35 29 26 36 44 48 50 53 58 57 59 60 61 62 63 63 65 66 66 67 68 69 70 69 70 70 71 72 74 75 75 76 76 76 77 76 76 77 77 77 76 76 76 75 75 73 73 73 73 73 73 71 70 71 70 71 71 70 69 68 68 68 67 68 68 68 67 68 68 68 67 67 67 66 66 65 64
8 5 10 18 23 27 23 25 24 24 23 25 29 30 30 29 35 42 39 32 33 31 35 40 45 49 51 53 54 56 56 58 60 61 63 64 66 67 66 67 68 69 71 69 71 71 71 72 74 75 75 76 76 76 76 76 77 77 77 77 77 77 76 75 75 75 74 74 74 73 73 73 72 71 71 71 69 69 68 67 68 67 67 67 68 68 68 66 67 67 67 67 66 65 66 66 65
12 8 10 13 19 21 25 28 24 25 25 24 31 33 30 29 33 34 35 33 32 32 33 34 40 43 53 53 53 55 56 57 59 61 62 65 65 66 66 67 67 68 69 69 71 72 72 73 73 75 75 75 76 77 76 76 77 77 77 77 77 77 76 76 74 75 74 75 74 74 72 72 73 71 70 70 69 69 68 67 67 66 67 68 68 68 67 67 67 67 67 66 66 65 66 66 65
12 11 10 14 17 20 26 21 29 26 23 25 22 28 29 27 28 32 30 28 25 28 29 25 36 45 50 51 53 55 56 57 60 63 64 65 65 66 66 66 66 67 68 70 72 72 72 73 73 74 75 75 76 76 76 76 77 77 77 77 77 77 76 76 75 75 75 75 74 74 72 72 71 69 69 69 68 68 67 68 67 67 67 67 67 67 67 67 67 66 67 66 66 66 66 66 66
9 10 10 11 21 23 27 28 22 22 23 22 22 22 25 29 31 29 31 30 29 31 32 29 27 43 50 50 53 55 56 57 59 60 63 64 65 65 67 65 65 68 70 70 71 71 72 72 73 73 74 74 75 75 76 76 76 76 76 77 77 77 76 76 75 76 75 74 73 72 72 71 71 70 70 69 68 67 67 67 68 67 67 67 67 67 67 67 67 67 67 66 66 66 66 65 65
8 10 13 15 18 21 24 27 28 27 24 24 21 20 23 33 29 28 30 32 32 28 29 28 28 33 48 51 51 54 57 57 58 59 61 64 64 64 64 65 65 67 68 68 68 69 69 70 73 73 73 75 75 75 76 76 76 76 76 77 78 77 77 76 76 76 75 74 73 72 72 70 70 69 69 69 69 67 67 66 65 65 65 66 66 66 66 67 68 67 67 65 64 65 65 65 64
8 4 13 15 14 17 19 20 24 26 25 22 24 19 25 31 29 27 31 33 33 30 30 32 30 31 35 49 51 54 58 58 58 59 60 62 63 63 64 65 65 66 68 67 67 68 68 69 70 71 73 73 73 74 75 76 76 76 76 77 77 77 77 76 75 75 75 74 73 73 71 71 71 70 69 69 67 67 67 66 66 67 66 66 67 67 67 67 67 68 67 66 65 65 65 64 64
4 11 10 11 17 18 19 21 22 23 22 25 20 20 30 28 28 33 30 31 29 30 31 31 31 27 37 42 51 55 58 59 59 58 58 60 63 64 63 65 65 65 65 66 66 67 67 68 68 69 69 70 70 73 75 76 76 76 76 77 77 76 76 75 75 75 74 73 73 72 72 71 70 70 69 67 67 66 68 67 67 68 67 67 68 68 66 66 67 66 65 65 64 65 65 64 64